Location: ??
(35.4032°N, 139.3073°E)
Time: 02:37:13
(UTC+00:00)

ADEOS II - Pass Details

Date: 13 April 2024
Orbit: 796 x 799 km, 98.7° (Epoch: 25 May)

Event Time Altitude Azimuth Distance (km) Brightness Sun altitude
Rises 18:04:34 0° 356° (N) 3,309 5.7 -24.7°
Reaches altitude 10° 18:07:25 10° 341° (NNW) 2,374 4.7 -24.2°
Enters shadow 18:10:09 20° 311° (NW) 1,795 3.7 -23.8°
